Challis, ID

1:32 AM MDT on March 26, 2017 (GMT -0600)
Challis

Weather History for KLLJ - October, 2012

Change the Weather History Date:

Monday, October 29, 2012

  Actual Average Record
Temperature  
Mean Temperature 53 °F 39 °F  
Max Temperature 64 °F 52 °F 77 °F (1937)
Min Temperature 41 °F 26 °F 1 °F (1971)
Degree Days  
Heating Degree Days 12 26  
Month to date heating degree days 617 592  
Since 1 July heating degree days 794 941  
Cooling Degree Days 0 0  
Month to date cooling degree days 0 0  
Year to date cooling degree days 329 248  
Growing Degree Days 2 (Base 50)    
Moisture  
Dew Point 37 °F    
Average Humidity 58    
Maximum Humidity 89    
Minimum Humidity 27    
Precipitation  
Precipitation 0.03 in 0.03 in 0.60 in (1933)
Month to date precipitation 0.39 0.62  
Year to date precipitation 4.27 8.75  
Sea Level Pressure  
Sea Level Pressure 30.03 in    
Wind  
Wind Speed 6 mph (WSW)    
Max Wind Speed 21 mph    
Max Gust Speed 28 mph    
Visibility 10 miles    
Events Rain    
T = Trace of Precipitation, MM = Missing Value Source: NWS Daily Summary

Daily Weather History Graph

Daily Weather History Graph

Search for Another Location

Airport or City:

Trip Planner

Search our weather history database for the weather conditions in past years. The results will help you decide how hot, cold, wet, or windy it might be!

Date:

Astronomy

Oct. 29, 2012 Rise Set
Actual Time 8:11 AM MDT 6:29 PM MDT
Civil Twilight 7:40 AM MDT 6:59 PM MDT
Nautical Twilight 7:06 AM MDT 7:33 PM MDT
Astronomical Twilight 6:32 AM MDT 8:07 PM MDT
Moon 6:21 PM MDT (10/29) 8:06 AM MDT (10/29)
Length of Visible Light 11h 18m
Length of Day
10h 18m
Full, 100% of the Moon is Illuminated
Oct 29
Full
Oct 29
Full
Nov 6
Last Quarter
Nov 13
New
Nov 20
First Quarter

Hourly Weather History & Observations

Time (MDT) Temp. Windchill Dew Point Humidity Pressure Visibility Wind Dir Wind Speed Gust Speed Precip Events Conditions
12:55 AM 43.0 °F - 39.9 °F 89% 30.02 in 10.0 mi Calm Calm - 0.00 in Rain Light Rain
1:55 AM 44.1 °F - 39.9 °F 85% 30.00 in 10.0 mi Calm Calm - 0.01 in Rain Light Rain
2:55 AM 43.0 °F 41.3 °F 41.0 °F 93% 29.98 in 10.0 mi SW 3.5 mph - 0.00 in   Overcast
3:55 AM 43.0 °F 40.3 °F 39.9 °F 89% 30.00 in 10.0 mi NE 4.6 mph - N/A   Overcast
5:55 AM 44.1 °F 42.5 °F 39.9 °F 85% 29.99 in 10.0 mi South 3.5 mph - N/A   Overcast
6:55 AM 42.1 °F 38.4 °F 39.9 °F 92% 30.04 in 10.0 mi NW 5.8 mph - 0.01 in Rain Light Rain
7:55 AM 43.0 °F 38.2 °F 39.9 °F 89% 30.01 in 10.0 mi SSW 8.1 mph - 0.01 in   Scattered Clouds
8:55 AM 43.0 °F 41.3 °F 39.9 °F 89% 30.03 in 10.0 mi SW 3.5 mph - N/A   Mostly Cloudy
9:55 AM 45.0 °F 42.6 °F 39.9 °F 82% 30.05 in 10.0 mi North 4.6 mph - N/A   Partly Cloudy
10:55 AM 48.9 °F - 43.0 °F 80% 30.04 in 10.0 mi Calm Calm - N/A   Scattered Clouds
11:55 AM 55.0 °F - 43.0 °F 64% 30.02 in 10.0 mi SSW 11.5 mph 19.6 mph N/A   Partly Cloudy
12:55 PM 57.0 °F - 37.0 °F 47% 30.01 in 10.0 mi South 6.9 mph - N/A   Scattered Clouds
2:55 PM 63.0 °F - 30.0 °F 29% 29.97 in 10.0 mi SW 13.8 mph 19.6 mph N/A   Mostly Cloudy
3:55 PM 63.0 °F - 28.9 °F 28% 29.97 in 10.0 mi WSW 10.4 mph 25.3 mph N/A   Partly Cloudy
4:55 PM 62.1 °F - 30.0 °F 30% 29.99 in 10.0 mi West 10.4 mph 19.6 mph N/A   Overcast
5:55 PM 59.0 °F - 32.0 °F 36% 30.02 in 10.0 mi Variable 4.6 mph - N/A   Overcast
6:55 PM 55.9 °F - 34.0 °F 44% 30.05 in 10.0 mi SW 4.6 mph - N/A   Overcast
7:55 PM 55.0 °F - 33.1 °F 43% 30.08 in 10.0 mi WSW 12.7 mph - N/A   Overcast
9:55 PM 50.0 °F - 36.0 °F 59% 30.11 in 10.0 mi West 6.9 mph - N/A   Overcast
10:55 PM 48.9 °F - 36.0 °F 61% 30.11 in 10.0 mi WSW 5.8 mph - 0.00 in   Scattered Clouds
11:55 PM 44.1 °F - 35.1 °F 71% 30.11 in 10.0 mi Calm Calm - N/A   Overcast